"Pseudo-MPEC" for P20IoLw

Created 2018 Jul 18 22:18:11 UT using Find_Orb

Click here for an explanation of pseudo-MPECs

 
 Astrometry: 
     P20IoLw  C2018 07 119jAstrometryFM'-QJMaqXp]6j3x=g`,kY4^*npEwcjD6KQBOX)FF52
     P20IoLw  C2018 07 116S^wK%:l?!]xiA(]kredacted;N[/rYyseeCdAsv%sf21m0\L$NkF52
     P20IoLw  C2018 07 11YfCHaL,STgbaId]v:p([MlyKFD*fBSNn_[w\Z8+xu\8kRN3NEOCPF52

Station data:
(F52) Pan-STARRS 2, Haleakala  (N20.707384 W156.255910)  US/Hawaii.

Orbital elements:  P20IoLw
   Perihelion 2018 Jun 6.809675 +/- 68.7 TT = 19:25:55 (JD 2458276.309675)
Epoch 2018 Jul 12.0 TT = JDT 2458311.5   Earth MOID: 0.5087   AutoNEOCP
M   8.57055 +/- 80                  (J2000 ecliptic)
n   0.24354875 +/- 0.488            Peri.   51.60143 +/- 90
a   2.53948379 +/- 3.39             Node   255.11974 +/- 59
e   0.4256387 +/- 0.248             Incl.   17.89996 +/- 43
P   4.05                   H 19.3   G  0.15   U 12.3  SR
q 1.45858106 +/- 0.511    Q 3.62038653 +/- 19.4
From 3 observations 2018 July 11 (28.5 min); mean residual 0".07
Residuals in arcseconds: 
180711 F52  .05-  .05-    180711 F52  .10+  .10+    180711 F52  .05-  .05-    

Ephemerides (geocentric):
Date (UTC) HH   RA              Dec         delta   r     elong  mag " sig PA
---- -- -- --  -------------   -----------  ------ ------ -----  --- ---- ---
2018 07 18 22  00 19 18.557   +31 53 21.77  0.9983 1.5094  97.0 21.8  49d  21
2018 07 18 23  00 19 22.396   +31 54 17.44  0.9982 1.5095  97.1 21.8  49d  21
2018 07 19 00  00 19 26.233   +31 55 13.09  0.9981 1.5096  97.1 21.8  49d  21
2018 07 19 01  00 19 30.067   +31 56 08.70  0.9980 1.5097  97.1 21.8  50d  21
2018 07 19 02  00 19 33.898   +31 57 04.28  0.9979 1.5098  97.1 21.8  50d  21
2018 07 19 03  00 19 37.727   +31 57 59.84  0.9978 1.5099  97.1 21.8  50d  21
2018 07 19 04  00 19 41.553   +31 58 55.36  0.9977 1.5100  97.1 21.8  50d  21
2018 07 19 05  00 19 45.376   +31 59 50.85  0.9976 1.5101  97.2 21.8  50d  21
2018 07 19 06  00 19 49.196   +32 00 46.31  0.9974 1.5102  97.2 21.8  50d  21
2018 07 19 07  00 19 53.014   +32 01 41.74  0.9973 1.5103  97.2 21.8  50d  21
2018 07 19 08  00 19 56.830   +32 02 37.14  0.9972 1.5104  97.2 21.8  51d  21
2018 07 19 09  00 20 00.642   +32 03 32.51  0.9971 1.5105  97.2 21.8  51d  21
2018 07 19 10  00 20 04.452   +32 04 27.85  0.9970 1.5106  97.2 21.8  51d  21
2018 07 19 11  00 20 08.259   +32 05 23.16  0.9969 1.5107  97.3 21.8  51d  21
2018 07 19 12  00 20 12.064   +32 06 18.43  0.9968 1.5108  97.3 21.8  51d  21
2018 07 19 13  00 20 15.866   +32 07 13.68  0.9967 1.5109  97.3 21.8  51d  21
2018 07 19 14  00 20 19.665   +32 08 08.90  0.9965 1.5110  97.3 21.8  51d  21
2018 07 19 15  00 20 23.462   +32 09 04.08  0.9964 1.5111  97.3 21.8  51d  21
2018 07 19 16  00 20 27.256   +32 09 59.24  0.9963 1.5112  97.3 21.8  51d  21
2018 07 19 17  00 20 31.047   +32 10 54.36  0.9962 1.5113  97.3 21.8  52d  21
2018 07 19 18  00 20 34.835   +32 11 49.45  0.9961 1.5114  97.4 21.8  52d  21
2018 07 19 19  00 20 38.621   +32 12 44.52  0.9960 1.5115  97.4 21.8  52d  21
2018 07 19 20  00 20 42.404   +32 13 39.55  0.9959 1.5116  97.4 21.8  52d  21
2018 07 19 21  00 20 46.185   +32 14 34.55  0.9958 1.5117  97.4 21.8  52d  21
2018 07 19 22  00 20 49.962   +32 15 29.52  0.9956 1.5118  97.4 21.8  52d  21
2018 07 19 23  00 20 53.737   +32 16 24.46  0.9955 1.5119  97.4 21.8  52d  21
2018 07 20 00  00 20 57.510   +32 17 19.37  0.9954 1.5120  97.5 21.8  52d  21
2018 07 20 01  00 21 01.279   +32 18 14.25  0.9953 1.5121  97.5 21.8  52d  21
2018 07 20 02  00 21 05.046   +32 19 09.09  0.9952 1.5122  97.5 21.8  52d  21
2018 07 20 03  00 21 08.810   +32 20 03.91  0.9951 1.5123  97.5 21.8  52d  21
2018 07 20 04  00 21 12.572   +32 20 58.69  0.9950 1.5124  97.5 21.8  52d  21
2018 07 20 05  00 21 16.330   +32 21 53.45  0.9949 1.5125  97.5 21.8  52d  21
2018 07 20 06  00 21 20.087   +32 22 48.17  0.9947 1.5126  97.6 21.8  52d  21
2018 07 20 07  00 21 23.840   +32 23 42.86  0.9946 1.5127  97.6 21.8  53d  21
2018 07 20 08  00 21 27.590   +32 24 37.53  0.9945 1.5128  97.6 21.8  53d  21
2018 07 20 09  00 21 31.338   +32 25 32.16  0.9944 1.5129  97.6 21.8  53d  21
2018 07 20 10  00 21 35.083   +32 26 26.76  0.9943 1.5130  97.6 21.8  53d  21
2018 07 20 11  00 21 38.826   +32 27 21.32  0.9942 1.5131  97.6 21.8  53d  21
2018 07 20 12  00 21 42.566   +32 28 15.86  0.9941 1.5132  97.7 21.8  53d  21
2018 07 20 13  00 21 46.302   +32 29 10.37  0.9940 1.5133  97.7 21.8  53d  21
2018 07 20 14  00 21 50.037   +32 30 04.84  0.9938 1.5134  97.7 21.8  53d  21
2018 07 20 15  00 21 53.768   +32 30 59.29  0.9937 1.5135  97.7 21.8  53d  21
2018 07 20 16  00 21 57.497   +32 31 53.70  0.9936 1.5136  97.7 21.8  53d  21
2018 07 20 17  00 22 01.223   +32 32 48.08  0.9935 1.5137  97.7 21.8  53d  21
2018 07 20 18  00 22 04.946   +32 33 42.44  0.9934 1.5138  97.8 21.8  54d  21
2018 07 20 19  00 22 08.667   +32 34 36.76  0.9933 1.5139  97.8 21.8  54d  21
2018 07 20 20  00 22 12.384   +32 35 31.04  0.9932 1.5140  97.8 21.8  54d  21
2018 07 20 21  00 22 16.099   +32 36 25.30  0.9931 1.5141  97.8 21.8  54d  21